Simultaneous Nadir Overpasses (SNOs) Predictions

Prediction of SNOs between METOP-C and LANDSAT-8 Satellite Orbit:

Table of predicted SNOs for the next 14.0 days since TLE Epoch: 3/15/2025
Index Date (METOP-C) Time (METOP-C) Lat,Lon (METOP-C) SZA (METOP-C ) Date (LANDSAT-8) Time (LANDSAT-8) Lat,Lon (LANDSAT-8) SZA (LANDSAT-8 ) Distance(km) Time Diff (sec)
1 03/16/2025 16:53:08 81.13, -33.65 84.38 03/16/2025 16:53:34 81.13, -33.77 84.38 2.09 26
2 03/16/2025 17:43:48 -81.15, 134.18 95.58 03/16/2025 17:43:00 -81.15, 134.18 95.60 0.12 48
3 03/19/2025 12:27:31 81.13, 32.75 83.29 03/19/2025 12:27:45 81.13, 32.67 83.29 1.42 14
4 03/19/2025 13:18:11 -81.15,-159.39 96.66 03/19/2025 13:17:11 -81.15,-159.37 96.68 0.50 60
5 03/22/2025 07:11:30 -80.87, -74.20 98.55 03/22/2025 07:12:44 -80.73, -73.79 98.60 16.77 74
6 03/22/2025 08:01:54 81.13, 99.00 82.19 03/22/2025 08:01:55 81.13, 99.07 82.19 1.18 1
7 03/22/2025 08:52:34 -81.15, -93.11 97.76 03/22/2025 08:51:21 -81.15, -92.95 97.78 2.68 73
8 03/25/2025 02:45:37 -81.12, -2.21 98.92 03/25/2025 02:46:38 -81.12, -2.18 98.90 0.62 61
9 03/25/2025 03:36:14 81.15, 165.88 81.16 03/25/2025 03:36:02 81.14, 165.80 81.15 1.38 12
10 03/27/2025 22:19:58 -81.12, 64.18 100.00 03/27/2025 22:20:45 -81.11, 64.17 99.99 0.43 47



Historial Predications of SNOs between METOP-C and LANDSAT-8
